TDRS 8

Last updated on Fri Sep 19 2025 00:02:40 GMT+0000 (Coordinated Universal Time)

1 26388U 00034A 25260.97216619 -.00000203 00000+0 00000+0 0 9994 2 26388 12.2490 33.5606 0002275 92.4661 305.6983 1.00253799 92454
UTC large
Height (km)
Speed (km/s)
/
Latitude / Longitude
Inclination (degrees)
Orbital Period (minutes)
Azimuth
Elevation
Range (km)
Doppler Factor

Next 0 passes for location: London (51.5072 / 0.1276)

Sorry there are no passes over London.